McCook, NE

9:36 AM CST on December 18, 2017 (GMT -0600)
McCook Municipal

Weather History for KMCK - October, 2012

Change the Weather History Date:

Thursday, October 18, 2012

  Actual Average Record
Temperature  
Mean Temperature 51 °F 51 °F  
Max Temperature 60 °F 66 °F 90 °F (2003)
Min Temperature 42 °F 35 °F 15 °F (1925)
Degree Days  
Heating Degree Days 13    
Growing Degree Days 2 (Base 50)    
Moisture  
Dew Point 15 °F    
Average Humidity 25    
Maximum Humidity 37    
Minimum Humidity 17    
Precipitation  
Precipitation 0.00 in 0.06 in 1.53 in (1965)
Month to date precipitation 0.32 1.08  
Year to date precipitation 7.91 20.23  
Sea Level Pressure  
Sea Level Pressure 29.89 in    
Wind  
Wind Speed 27 mph (NW)    
Max Wind Speed 46 mph    
Max Gust Speed 60 mph    
Visibility 6 miles    
Events      
T = Trace of Precipitation, MM = Missing Value Source: NWS Daily Summary

Daily Weather History Graph

Daily Weather History Graph

Search for Another Location

Airport or City:

Trip Planner

Search our weather history database for the weather conditions in past years. The results will help you decide how hot, cold, wet, or windy it might be!

Date:

Astronomy

Oct. 18, 2012 Rise Set
Actual Time 7:56 AM CDT 6:57 PM CDT
Civil Twilight 7:29 AM CDT 7:24 PM CDT
Nautical Twilight 6:57 AM CDT 7:56 PM CDT
Astronomical Twilight 6:26 AM CDT 8:27 PM CDT
Moon 11:40 AM CDT 9:33 PM CDT
Length of Visible Light 11h 55m
Length of Day
11h 00m
Waxing Crescent, 14% of the Moon is Illuminated
Oct 18
Waxing Crescent
Oct 21
First Quarter
Oct 29
Full
Nov 6
Last Quarter
Nov 13
New

Hourly Weather History & Observations

Time (CDT) Temp. Windchill Dew Point Humidity Pressure Visibility Wind Dir Wind Speed Gust Speed Precip Events Conditions
12:53 AM 45.0 °F 38.5 °F 19.9 °F 37% 29.87 in 10.0 mi WNW 13.8 mph - N/A   Partly Cloudy
1:53 AM 45.0 °F 37.9 °F 19.9 °F 37% 29.89 in 10.0 mi WNW 16.1 mph - N/A   Partly Cloudy
2:53 AM 46.9 °F - 19.0 °F 33% 29.88 in 10.0 mi WNW 23.0 mph 31.1 mph N/A   Clear
3:53 AM 46.0 °F 38.0 °F 19.0 °F 34% 29.88 in 10.0 mi WNW 21.9 mph 29.9 mph N/A   Clear
4:53 AM 45.0 °F 35.8 °F 18.0 °F 34% 29.87 in 10.0 mi WNW 26.5 mph 32.2 mph N/A   Clear
5:53 AM 45.0 °F 35.6 °F 17.1 °F 33% 29.88 in 10.0 mi WNW 27.6 mph 39.1 mph N/A   Clear
6:53 AM 44.1 °F 34.6 °F 17.1 °F 34% 29.89 in 10.0 mi WNW 26.5 mph 34.5 mph N/A   Clear
7:53 AM 44.1 °F 34.0 °F 17.1 °F 34% 29.88 in 10.0 mi WNW 29.9 mph 47.2 mph N/A   Clear
8:53 AM 46.0 °F 36.7 °F 17.1 °F 31% 29.89 in 10.0 mi NW 29.9 mph 47.2 mph N/A   Clear
9:53 AM 48.9 °F - 15.1 °F 26% 29.89 in 5.0 mi NW 38.0 mph 54.1 mph N/A   Haze
10:22 AM 51.8 °F - 14.0 °F 22% 29.87 in 3.0 mi NW 39.1 mph 54.1 mph N/A   Haze
10:39 AM 51.8 °F - 14.0 °F 22% 29.87 in 2.5 mi NW 41.4 mph 56.4 mph N/A   Haze
10:53 AM 52.0 °F - 12.9 °F 21% 29.88 in 2.0 mi NW 39.1 mph 59.8 mph N/A   Haze
11:05 AM 53.6 °F - 12.2 °F 19% 29.87 in 1.8 mi NW 38.0 mph 56.4 mph N/A   Haze
11:53 AM 54.0 °F - 12.9 °F 20% 29.87 in 1.5 mi NW 46.0 mph 56.4 mph N/A   Haze
12:53 PM 55.9 °F - 12.0 °F 18% 29.87 in 1.2 mi WNW 39.1 mph 54.1 mph N/A   Haze
2:11 PM 57.2 °F - 15.8 °F 20% 29.86 in 2.0 mi NW 42.6 mph 58.7 mph N/A   Haze
2:50 PM 59.0 °F - 15.8 °F 19% 29.86 in 3.0 mi NNW 35.7 mph 51.8 mph N/A   Haze
2:53 PM 59.0 °F - 15.1 °F 18% 29.85 in 3.0 mi NNW 35.7 mph 51.8 mph N/A   Haze
3:33 PM 60.8 °F - 15.8 °F 17% 29.86 in 4.0 mi NW 40.3 mph 50.6 mph N/A   Haze
3:48 PM 60.8 °F - 15.8 °F 17% 29.86 in 3.0 mi NW 36.8 mph 54.1 mph N/A   Haze
3:53 PM 59.0 °F - 16.0 °F 19% 29.85 in 4.0 mi NW 38.0 mph 51.8 mph N/A   Haze
4:53 PM 59.0 °F - 15.1 °F 18% 29.86 in 4.0 mi NW 32.2 mph 51.8 mph N/A   Haze
5:53 PM 57.0 °F - 16.0 °F 20% 29.88 in 7.0 mi NNW 39.1 mph 49.5 mph N/A   Clear
6:53 PM 55.0 °F - 16.0 °F 22% 29.91 in 6.0 mi NW 25.3 mph 32.2 mph N/A   Haze
7:53 PM 54.0 °F - 14.0 °F 21% 29.92 in 10.0 mi NW 23.0 mph 31.1 mph N/A   Mostly Cloudy
8:53 PM 50.0 °F - 12.9 °F 23% 29.95 in 10.0 mi WNW 13.8 mph - N/A   Clear
9:53 PM 48.0 °F - 12.0 °F 24% 29.96 in 10.0 mi WNW 12.7 mph - N/A   Clear
10:53 PM 45.0 °F 39.7 °F 10.9 °F 25% 29.97 in 10.0 mi WNW 10.4 mph - N/A   Clear
11:53 PM 43.0 °F 36.8 °F 10.9 °F 27% 29.97 in 10.0 mi West 11.5 mph - N/A   Clear